This is the latest recevied weather packets stored in our database for station/object IK2ILW-6. If no packets are shown the sender has not sent any weather packets the latest 1 day(s).
| Time | Temp. | Humidity | Pressure | Rain* | Wind** | Luminosity | Snow |
|---|---|---|---|---|---|---|---|
| 1778001995 | 3.89° C | 96% | 1012.8 hPa | 1.02 mm | 2.24 m/s, 125° | 16 W/m² | - |
| 1778001700 | 3.89° C | 96% | 1012.9 hPa | 1.02 mm | 1.34 m/s, 134° | 18 W/m² | - |
| 1778001386 | 3.89° C | 96% | 1012.8 hPa | 1.02 mm | 1.34 m/s, 141° | 19 W/m² | - |
| 1778001090 | 3.89° C | 96% | 1012.8 hPa | 1.02 mm | 1.34 m/s, 123° | 21 W/m² | - |
| 1778000795 | 3.89° C | 96% | 1012.8 hPa | 1.02 mm | 0.45 m/s, 157° | 26 W/m² | - |
| 1778000499 | 3.89° C | 96% | 1012.8 hPa | 1.02 mm | 1.34 m/s, 20° | 42 W/m² | - |
| 1778000184 | 3.89° C | 96% | 1012.9 hPa | 1.02 mm | 1.34 m/s, 92° | 42 W/m² | - |
| 1777999888 | 3.89° C | 96% | 1012.9 hPa | 1.02 mm | 1.79 m/s, 112° | 35 W/m² | - |
| 1777999597 | 3.89° C | 96% | 1012.9 hPa | 1.02 mm | 1.34 m/s, 125° | 42 W/m² | - |
| 1777999302 | 3.89° C | 96% | 1013 hPa | 0 mm | 0.89 m/s, 117° | 40 W/m² | - |
| 1777998986 | 3.89° C | 96% | 1013 hPa | 0 mm | 2.24 m/s, 135° | 35 W/m² | - |
| 1777998691 | 3.89° C | 96% | 1013 hPa | 0 mm | 1.79 m/s, 134° | 37 W/m² | - |
| 1777998395 | 3.89° C | 96% | 1013 hPa | 0 mm | 2.24 m/s, 119° | 44 W/m² | - |
| 1777998100 | 3.89° C | 96% | 1013 hPa | 1.02 mm | 2.68 m/s, 128° | 63 W/m² | - |
| 1777997784 | 3.89° C | 96% | 1013 hPa | 1.02 mm | 2.68 m/s, 130° | 62 W/m² | - |
| 1777997488 | 3.89° C | 96% | 1013 hPa | 1.02 mm | 1.79 m/s, 140° | 60 W/m² | - |
| 1777997193 | 3.89° C | 96% | 1013.1 hPa | 1.02 mm | 2.24 m/s, 115° | 53 W/m² | - |
| 1777996898 | 3.89° C | 96% | 1013.2 hPa | 1.02 mm | 1.34 m/s, 126° | 47 W/m² | - |
| 1777996587 | 3.89° C | 96% | 1013.1 hPa | 1.02 mm | 2.24 m/s, 134° | 62 W/m² | - |
| 1777996292 | 3.89° C | 96% | 1013 hPa | 1.02 mm | 3.13 m/s, 134° | 70 W/m² | - |
| 1777995997 | 3.89° C | 96% | 1013.1 hPa | 1.02 mm | 1.79 m/s, 136° | 53 W/m² | - |
| 1777995701 | 3.89° C | 96% | 1013.1 hPa | 2.03 mm | 2.24 m/s, 135° | 53 W/m² | - |
| 1777995386 | 3.89° C | 96% | 1013.1 hPa | 3.05 mm | 2.68 m/s, 138° | 63 W/m² | - |
| 1777995091 | 3.89° C | 96% | 1013.1 hPa | 4.06 mm | 2.68 m/s, 135° | 62 W/m² | - |
| 1777994795 | 4.44° C | 96% | 1013.1 hPa | 5.08 mm | 2.24 m/s, 124° | 70 W/m² | - |
* Rain latest hour (hover to see other rain measurements)
** Current wind speed in m/s (hover to see current wind gust speed)